NOAA 16 DEB

Satellite information

Favourite Embed

Satellite Type and Status

DEBRISIN ORBIT

Key statistics

Satellite NOAA 16 DEB at a glance.

Uptime

9214

Days in orbit

Revolutions

≈ 14.3

Per day

Orbit

SSO

Sun Synchronous Orbit

Inclination

98.7

Latest

Satellite identification and parameters

Extended collection of information and parameters for NOAA 16 DEB.

Object identification

Identified? True

Debris? True

Object name: NOAA 16 DEB

International designator: 2000-055MZ

Object number (NORAD): 41525

Object ID (CCSDS): 41525

Country: UNITED STATES OF AMERICA (US)

Current information (Y/N): Y

RCS size: SMALL

Orbital parameters

Period: 100.768 minutes

Inclination: 98.6667 deg

SMA: 7173.117 km

Apoapsis: 801.946 km

Periapsis: 788.018 km

RAAN: 51.9578 deg

Eccentricy: 0.0009708

Argument of periapsis: 0.2012 deg

Mean anomaly: 359.9172 deg

Mean motion: 14.29028495 rev/day

Mean motion (dot): 0.00006587 rev/day2

B* drag term: 0.0026165607 1/REarth

Two-line elements (TLE)

Creation date: Dec. 10, 2025, 7:58 p.m.

Reference frame: TEME

Reference center: EARTH

Epoch: Dec. 10, 2025, 10:04 a.m. UTC

TLE line 0: 0 NOAA 16 DEB

TLE line 1: 1 41525U 00055MZ 25344.41975846 .00006587 00000-0 26166-2 0 9998

TLE line 2: 2 41525 98.6667 51.9578 0009708 0.2012 359.9172 14.29028495502653

Live tracking on map

Real-time ground track for satellite NOAA 16 DEB.

In-orbit conjunctions

A list of the most updated potential collisions computed for object NOAA 16 DEB.

Target Orbit TCA Probability of collision Miss distance Type
SL-3 R/B LEO 2025-11-30 10:11:38 0.0001213637 573.0 (m) ROCKET BODY
IRIDIUM 33 DEB LEO 2024-11-09 15:47:09 0.0003637075 183.0 (m) DEBRIS
AAU CUBESAT SSO 2024-11-04 13:37:09 0.0001082159 64.0 (m) PAYLOAD
NOAA 16 DEB SSO 2024-09-26 17:31:04 0.0002785907 314.0 (m) DEBRIS

Associated space launch

The NOAA K, L and M POES satellites begin the fifth generation of improved environmental monitoring in support of NOAA missions. The instrument payload has significant improvements and additions/deletions. The instrument changes have effected the spacecraft subsystems and data formats.

NOAA 16 DEB was lifted into orbit during the mission ‘Titan II SLV | NOAA 16’, on board a Titan II SLV space rocket.

The launch took place on Sept. 21, 2000, 10:22 a.m. from Space Launch Complex 4W.

For more information about the launch, click the button.

Launch to space Titan II SLV | NOAA 16
Titan II SLV | NOAA 16

Agency: N/A

Status: Launch Successful

Launch date: Sept. 21, 2000, 10:22 a.m. UTC

Rocket: Titan II SLV

Launch pad: Space Launch Complex 4W

Location: Vandenberg SFB, CA, USA

...

Latest news about this satellite

There are no fresh news available about this satellite. Check back as we update our databases every day.


Newsletter sign-up

Weekly statistics, charts and insights to help you stay on top of the space industry.